Wind_Speed
18 23 25 28 24 20 24 32 28 29 29 23 23 26 24 30 24 17 37 32 49 46 42 41 38 30 21 28 30 26 42 39 39 31 35 31 26 23 23 15 12 11 10 7
27 27 28 27 24 27 25 27 34 33 30 25 27 28 29 30 27 27 26 31 32 45 45 46 41 37 28 27 34 37 38 20 40 21 30 27 26 25 20 15 15 15 13 11
26 27 26 27 27 25 29 32 30 32 28 31 31 35 30 29 29 32 35 32 28 38 44 52 40 43 36 32 33 32 38 31 23 26 27 25 28 29 22 20 21 19 16 9
24 25 26 22 26 23 30 23 29 33 30 29 23 24 41 38 32 37 36 42 40 35 43 42 46 47 47 41 37 39 37 40 26 25 25 30 34 30 23 23 21 18 10 7
35 30 27 30 32 29 34 25 26 20 24 30 28 17 60 29 32 34 41 37 45 41 43 43 42 43 49 50 44 45 44 41 34 30 42 47 27 28 28 26 21 14 11 9
34 29 27 32 30 24 26 29 30 26 27 19 32 18 56 36 39 37 35 34 38 49 43 42 40 35 52 45 47 47 39 40 39 34 42 41 28 34 30 23 15 10 9 11
32 29 17 18 27 27 27 18 4 5 6 12 19 17 45 32 33 38 37 40 37 49 44 42 44 40 50 46 47 45 38 36 43 36 33 38 48 27 24 16 10 7 11 11
13 10 11 9 14 16 19 18 9 6 4 4 14 11 30 29 29 27 34 33 40 41 48 43 37 42 47 51 47 44 43 38 43 40 37 32 16 33 22 16 17 13 15 16
13 7 9 21 22 18 11 17 13 14 24 15 18 34 30 18 18 20 24 28 37 33 42 38 43 47 46 54 52 48 45 39 43 47 50 41 32 30 27 24 14 21 20 16
16 27 24 19 20 21 27 26 10 10 5 5 9 16 4 10 10 19 17 23 35 37 32 41 49 47 34 49 47 46 44 39 43 47 48 46 36 29 32 23 21 18 17 15
30 22 28 31 26 26 18 21 24 22 23 5 3 5 8 14 18 15 18 24 21 38 21 43 56 47 33 44 46 47 44 41 43 48 49 46 39 34 28 20 14 17 17 10
18 19 19 30 17 15 20 30 27 16 7 6 4 15 16 11 18 17 17 19 38 30 30 41 54 50 36 42 49 44 46 42 47 52 50 44 38 32 21 20 22 20 9 10
27 9 14 13 2 9 15 19 18 24 24 26 11 14 24 30 27 20 15 16 27 28 18 42 63 57 43 47 46 45 42 44 51 55 50 47 38 29 22 28 20 11 12 6
22 21 21 16 32 35 37 30 26 23 11 14 18 30 31 26 25 22 16 22 33 19 15 47 58 55 45 48 46 43 43 50 54 55 53 46 39 32 30 25 15 15 8 6
13 21 24 30 41 34 34 34 24 28 32 22 27 32 36 25 23 12 11 24 22 14 17 45 50 49 46 45 45 44 44 57 63 59 56 47 31 35 23 18 16 12 8 8
19 22 23 37 14 17 23 21 22 31 29 26 26 34 29 22 20 19 7 21 16 14 31 42 49 47 48 46 49 46 47 62 61 58 55 39 38 25 18 20 16 9 8 7
25 24 21 17 27 30 2 19 12 11 18 22 23 29 27 25 19 19 9 14 15 17 19 44 51 49 47 44 32 45 42 60 59 48 43 35 27 30 25 17 11 9 7 6
14 20 18 18 20 3 6 18 11 9 7 10 16 24 18 24 23 20 9 22 29 29 42 41 45 45 45 43 39 27 43 49 47 42 39 35 29 24 19 11 9 6 5 4
12 22 10 5 13 16 8 23 21 16 11 15 16 15 21 24 22 20 16 22 29 24 33 36 38 39 34 28 36 32 48 42 47 35 37 30 24 18 15 12 8 6 7 5
24 13 12 9 6 3 6 25 12 7 19 16 21 21 22 21 16 14 16 18 25 29 31 33 33 31 28 38 47 48 43 39 39 38 33 28 23 17 12 9 8 9 7 2
27 19 10 14 7 3 16 26 19 6 14 26 19 22 21 14 7 11 14 16 17 36 34 31 33 29 30 39 41 48 43 38 37 33 26 24 20 15 12 11 10 7 4 2
17 12 8 9 5 5 22 19 20 18 23 23 4 6 14 6 13 12 15 25 24 31 30 28 38 46 46 39 40 43 43 40 35 32 28 23 18 15 12 9 8 5 3 3
7 12 12 8 10 17 18 20 18 17 17 11 4 7 13 17 15 14 17 24 36 33 40 42 40 42 41 38 35 35 35 33 31 27 23 17 13 10 9 8 6 3 3 4
17 15 18 15 8 16 12 11 11 14 14 11 9 12 14 23 13 27 28 38 37 32 35 36 34 38 37 34 32 27 29 26 22 19 16 15 14 12 11 9 6 4 3 3
14 17 21 12 11 9 8 6 7 9 11 12 11 11 15 15 20 32 31 43 27 31 32 37 35 35 36 33 31 27 25 23 20 18 17 18 16 13 9 7 5 4 4 5
14 25 17 12 12 10 5 3 4 7 12 15 15 16 11 10 19 31 46 30 29 34 33 34 35 36 36 34 29 27 25 22 17 17 17 15 12 9 8 7 6 5 6 8
Wind_Direction
288 275 259 273 278 275 284 276 282 272 290 292 274 271 268 252 256 258 254 265 245 228 208 206 200 198 197 227 242 236 232 217 202 206 208 201 203 209 218 185 177 175 172 171
288 272 274 283 271 269 268 277 278 286 287 282 289 278 279 263 266 251 257 251 258 238 214 211 213 204 198 223 233 232 239 228 187 220 222 195 203 210 213 172 178 177 177 194
283 281 284 284 277 269 273 271 281 274 287 274 292 287 269 268 263 242 238 240 241 243 229 216 214 213 208 217 227 227 232 237 240 227 219 200 199 208 196 179 185 182 191 211
277 278 280 284 273 276 272 278 286 276 280 282 277 284 278 264 255 247 250 238 236 227 230 222 217 218 210 212 222 223 223 232 233 218 213 214 212 204 186 183 185 190 196 227
282 293 294 286 277 274 272 276 277 278 270 282 270 263 268 274 268 255 245 243 231 228 222 220 220 218 211 212 217 223 223 227 227 230 224 221 221 195 183 178 178 195 206 244
287 289 279 277 285 270 275 269 274 269 273 267 268 255 271 267 262 260 250 247 235 223 221 216 217 219 204 212 215 220 224 222 216 217 221 217 195 178 174 168 173 189 236 265
305 306 304 285 279 266 258 265 290 258 224 250 273 249 256 268 266 256 252 240 235 226 222 215 210 213 207 213 211 216 219 220 214 205 211 223 190 172 159 159 159 227 263 277
304 326 335 345 340 293 229 258 235 255 212 266 270 238 261 292 297 283 244 243 231 225 228 214 217 210 211 212 212 215 219 220 208 203 209 219 217 169 170 191 244 259 253 256
313 268 262 289 307 278 293 271 287 274 263 265 252 267 287 276 274 276 254 242 229 230 222 220 209 203 207 211 214 214 216 220 211 207 213 215 206 211 228 223 199 217 234 251
310 302 305 313 279 264 252 268 268 252 276 223 242 269 231 299 312 285 245 250 228 227 227 223 210 197 206 207 208 213 218 217 206 208 209 199 205 217 216 196 193 210 233 260
319 303 294 301 302 283 267 261 261 269 246 268 298 245 311 310 321 297 248 241 222 221 241 222 206 196 209 202 204 216 219 211 205 201 198 203 201 202 188 174 177 226 237 258
301 300 283 299 313 294 264 263 269 267 251 246 251 268 285 302 311 278 269 229 202 221 234 215 199 195 206 204 205 213 210 207 201 197 195 188 182 172 168 186 202 214 223 243
306 276 294 300 305 275 308 307 268 295 272 263 266 265 270 290 305 299 280 219 218 223 233 212 194 205 204 204 207 207 208 200 198 197 193 182 174 162 195 194 204 199 218 223
298 280 278 276 290 294 291 293 287 275 266 268 281 283 293 303 307 310 315 243 201 240 260 199 201 205 205 203 201 204 206 201 196 196 184 174 171 185 182 188 188 203 201 198
290 279 291 297 307 300 288 287 282 268 269 261 286 291 290 308 320 326 333 266 244 273 189 189 199 200 198 194 195 199 200 205 193 185 176 171 179 176 177 180 198 188 181 202
286 286 294 303 333 325 288 289 272 262 267 272 278 282 295 305 302 309 291 238 255 186 180 189 198 186 194 195 193 192 190 193 182 169 170 165 168 169 183 198 182 152 181 224
275 289 318 292 322 319 267 5 0 313 258 268 266 278 302 300 292 298 304 255 244 206 197 183 183 186 194 197 184 173 177 170 176 162 158 161 159 180 186 172 152 168 200 237
313 316 307 291 337 353 5 353 342 340 288 274 259 258 264 278 281 283 241 225 220 209 176 175 184 185 193 189 186 171 198 172 145 148 154 169 172 173 163 147 149 182 192 169
347 337 286 282 315 291 292 360 348 340 283 312 306 265 262 261 278 285 246 217 221 253 172 178 182 190 180 180 186 179 173 132 143 162 162 165 164 151 138 142 154 164 157 174
340 340 299 308 282 315 330 345 346 307 272 282 286 247 247 267 295 273 223 228 214 158 167 179 177 176 163 141 134 141 137 150 162 163 163 159 139 135 134 144 156 163 164 193
348 354 323 319 282 302 342 344 348 16 315 307 281 244 224 264 270 212 180 218 203 168 171 177 171 166 168 158 133 149 153 159 157 159 146 139 138 136 139 154 163 165 170 254
337 349 336 323 303 322 335 343 355 332 340 339 4 202 218 205 168 146 187 189 176 156 163 165 156 158 150 151 152 154 153 154 152 145 141 140 140 144 151 156 165 175 200 248
328 331 323 289 284 301 323 326 331 329 336 5 58 151 152 127 141 160 187 198 159 161 152 156 146 148 149 152 155 148 147 145 141 138 142 149 146 147 144 150 164 179 124 143
318 318 330 323 312 315 310 328 346 10 16 59 99 143 142 122 135 163 160 153 158 151 150 156 165 155 151 148 148 148 142 137 134 135 138 139 138 144 153 163 170 159 142 119
304 319 328 316 321 312 326 328 3 34 46 93 103 122 143 150 143 163 162 146 152 156 163 167 168 156 148 149 149 141 136 137 139 144 149 154 158 153 152 149 140 136 107 68
308 324 317 306 325 324 356 22 2 67 67 97 106 123 119 158 156 161 160 175 172 171 168 169 165 158 152 151 141 141 138 136 144 150 148 145 145 144 142 143 132 100 62 39
Height
3070 3071 3067 3067 3067 3066 3065 3061 3060 3056 3058 3059 3056 3058 3056 3058 3059 3058 3058 3058 3061 3066 3072 3075 3081 3088 3092 3085 3088 3093 3097 3115 3112 3101 3109 3120 3132 3139 3146 3153 3156 3160 3162 3162
3067 3063 3064 3062 3063 3061 3059 3059 3055 3052 3053 3053 3050 3049 3049 3050 3050 3051 3053 3054 3054 3060 3065 3069 3075 3081 3090 3085 3081 3091 3096 3078 3083 3100 3119 3113 3123 3133 3143 3149 3153 3157 3158 3157
3061 3060 3060 3058 3056 3055 3053 3053 3051 3050 3048 3044 3046 3041 3041 3043 3044 3044 3047 3050 3050 3053 3059 3064 3070 3076 3084 3086 3085 3084 3084 3098 3080 3102 3121 3107 3118 3129 3137 3144 3150 3151 3153 3153
3055 3055 3053 3051 3049 3049 3045 3048 3045 3043 3044 3037 3045 3034 3031 3032 3035 3036 3037 3041 3044 3046 3054 3060 3063 3070 3077 3082 3087 3091 3091 3086 3096 3103 3102 3109 3117 3126 3135 3139 3144 3149 3151 3152
3046 3049 3047 3043 3042 3044 3039 3042 3041 3040 3039 3035 3033 3038 3002 3027 3025 3024 3027 3030 3034 3038 3043 3052 3059 3064 3071 3077 3081 3089 3095 3099 3102 3104 3106 3114 3105 3123 3131 3132 3139 3145 3148 3150
3043 3043 3041 3036 3035 3036 3036 3036 3035 3034 3034 3027 3018 3032 2993 3014 3015 3016 3018 3020 3024 3029 3034 3041 3051 3058 3064 3068 3075 3084 3091 3096 3101 3105 3105 3106 3087 3110 3126 3130 3134 3141 3146 3147
3036 3034 3031 3034 3027 3029 3031 3031 3031 3028 3029 3013 3019 3019 2996 3004 3006 3005 3008 3011 3013 3019 3024 3030 3040 3048 3056 3059 3068 3077 3083 3088 3093 3099 3102 3103 3081 3113 3119 3128 3131 3139 3143 3144
3034 3031 3030 3029 3028 3025 3022 3025 3025 3020 3016 3011 3013 3005 2990 2998 2998 2997 2995 2998 3003 3007 3015 3021 3032 3041 3045 3053 3061 3068 3074 3082 3087 3093 3096 3099 3101 3108 3121 3125 3132 3138 3142 3143
3033 3027 3026 3026 3025 3025 3018 3017 3020 3012 3010 3010 3002 2994 2991 2994 2988 2989 2989 2990 2995 2999 3007 3014 3023 3034 3036 3045 3054 3061 3067 3074 3079 3087 3091 3096 3100 3105 3118 3123 3131 3136 3139 3140
3033 3022 3021 3019 3018 3017 3014 3016 3014 3013 3007 2999 2991 2988 2985 2988 2986 2982 2981 2983 2989 2990 2999 3007 3015 3027 3030 3041 3051 3057 3063 3068 3075 3081 3087 3094 3101 3109 3120 3127 3129 3133 3136 3137
3029 3024 3014 3015 3010 3008 3011 3008 3008 3007 3005 3000 2992 2986 2983 2981 2981 2980 2977 2978 2981 2986 2995 3000 3006 3018 3024 3034 3043 3051 3056 3063 3070 3077 3085 3093 3101 3111 3119 3121 3126 3130 3133 3132
3025 3018 3009 3005 3003 3002 3001 3000 3003 3000 2995 2989 2990 2977 2976 2979 2978 2974 2973 2971 2980 2985 2985 2996 3000 3009 3019 3027 3035 3044 3050 3060 3066 3073 3081 3091 3100 3107 3112 3117 3122 3127 3126 3131
3019 3013 3006 2999 3000 2997 2996 2995 2995 2993 2989 2984 2987 2974 2975 2974 2971 2971 2966 2962 2970 2974 2975 2985 2991 3002 3013 3020 3030 3040 3048 3053 3060 3067 3078 3086 3095 3102 3111 3115 3119 3119 3126 3127
3015 3009 3008 3004 2997 2994 2988 2986 2987 2989 2984 2978 2976 2968 2965 2968 2966 2967 2963 2965 2968 2969 2967 2971 2986 2997 3008 3017 3031 3040 3043 3048 3054 3062 3073 3083 3092 3099 3106 3111 3113 3120 3122 3126
3010 3004 3001 2994 2986 2983 2979 2977 2978 2979 2977 2976 2971 2966 2955 2965 2960 2962 2961 2959 2967 2967 2964 2971 2983 2994 3005 3015 3026 3034 3039 3041 3042 3057 3066 3079 3090 3097 3104 3107 3112 3116 3120 3123
3004 2998 2995 2985 2982 2979 2974 2968 2970 2969 2970 2970 2969 2959 2953 2962 2961 2952 2955 2966 2970 2967 2964 2970 2981 2994 3001 3011 3020 3029 3032 3032 3018 3033 3061 3077 3086 3093 3101 3111 3111 3111 3115 3119
2998 2996 2993 2980 2978 2970 2969 2969 2966 2963 2965 2966 2964 2957 2954 2958 2955 2954 2952 2954 2962 2964 2966 2974 2981 2991 3001 3013 3022 3026 3025 3024 3031 3038 3064 3075 3082 3095 3104 3106 3108 3109 3111 3115
2997 2995 2991 2982 2977 2973 2973 2970 2965 2963 2961 2959 2957 2954 2954 2951 2955 2957 2962 2962 2961 2952 2962 2976 2984 2993 3001 3011 3018 3020 3036 3034 3029 3053 3066 3080 3088 3094 3099 3102 3105 3108 3107 3112
2996 2992 2988 2985 2980 2974 2972 2968 2965 2962 2958 2956 2955 2953 2949 2951 2950 2948 2950 2955 2958 2943 2961 2974 2988 2994 3002 3012 3020 3026 3032 3039 3047 3064 3073 3085 3090 3093 3095 3100 3103 3104 3107 3113
2994 2990 2989 2984 2980 2972 2972 2969 2965 2961 2956 2953 2950 2949 2947 2942 2950 2950 2951 2955 2957 2955 2963 2976 2987 2995 3003 3011 3023 3034 3035 3044 3057 3068 3078 3085 3089 3093 3094 3099 3100 3105 3107 3110
2991 2987 2985 2983 2979 2973 2971 2967 2960 2959 2960 2946 2944 2942 2948 2947 2952 2951 2958 2960 2961 2962 2966 2980 2985 2997 3005 3015 3021 3035 3040 3052 3061 3071 3077 3085 3091 3093 3096 3097 3099 3102 3105 3111
2993 2990 2987 2983 2979 2975 2972 2967 2964 2961 2953 2947 2942 2940 2948 2952 2952 2955 2959 2963 2966 2967 2975 2982 2988 2998 3011 3019 3029 3037 3050 3063 3072 3077 3081 3089 3092 3091 3091 3093 3099 3104 3109 3114
2994 2993 2991 2987 2980 2977 2972 2968 2963 2959 2952 2948 2945 2945 2947 2952 2953 2955 2964 2965 2964 2976 2979 2988 2993 3004 3016 3028 3040 3048 3056 3064 3070 3074 3081 3085 3084 3088 3093 3101 3104 3108 3112 3112
2992 2988 2986 2983 2979 2974 2971 2968 2964 2958 2954 2951 2948 2948 2954 2958 2964 2968 2971 2970 2969 2976 2988 2998 3007 3014 3023 3034 3043 3051 3056 3064 3069 3075 3080 3084 3089 3094 3098 3102 3104 3106 3109 3110
2990 2987 2983 2980 2977 2974 2970 2967 2964 2960 2957 2954 2953 2953 2960 2965 2969 2970 2974 2974 2981 2988 2995 3007 3016 3023 3029 3037 3045 3054 3061 3068 3074 3079 3084 3088 3092 3096 3098 3101 3104 3106 3106 3106
2987 2983 2981 2978 2977 2974 2971 2967 2965 2963 2960 2960 2959 2959 2961 2966 2969 2973 2975 2985 2990 2997 3006 3014 3022 3029 3035 3043 3053 3059 3066 3072 3077 3080 3084 3089 3093 3095 3099 3102 3102 3103 3103 3102